353  
ASUS41 KBOX 291904  
RWRBOX  
 
REGIONAL WEATHER ROUNDUP  
NATIONAL WEATHER SERVICE BOSTON/NORTON MA  
300 PM EDT THU JUL 29 2021  
 
NOTE: "FAIR" INDICATES FEW OR NO CLOUDS BELOW 12,000 FEET WITH NO  
SIGNIFICANT WEATHER AND/OR S TO VISIBILITY
.  
 
MAZALL-292000-  
EASTERN MASSACHUSETTS  
 
CITY SKY/WX TMP DP RH WIND PRES REMARKS
 
BOSTON CLOUDY 76 56 49 S20 29.91F  
BEVERLY LGT RAIN 70 64 81 S7 29.90F  
LAWRENCE LGT RAIN 71 67 87 VRB3 29.91F  
BEDFORD CLOUDY 72 67 84 S9 29.89F  
BLUE HILL NOT AVBL  
NORWOOD CLOUDY 77 59 53 S16G23 29.91F  
MARSHFIELD CLOUDY 73 55 53 S13G20 29.93F  
PLYMOUTH CLOUDY 72 56 57 SW13G24 29.95F  
TAUNTON PTSUNNY 74 57 55 S8G18 29.94F  
NEW BEDFORD CLOUDY 73 57 57 S14 29.95F  

 
 
MAZALL-292000-  
CAPE COD AND THE ISLANDS  
 
CITY SKY/WX TMP DP RH WIND PRES REMARKS
 
FALMOUTH PTSUNNY 73 52 46 S17G23 29.97F  
HYANNIS MOSUNNY 73 56 54 S15G22 29.96F  
CHATHAM MOSUNNY 73 53 49 S10G18 30.00F  
PROVINCETOWN PTSUNNY 74 54 49 S17G24 29.96F  
NANTUCKET MOSUNNY 73 60 63 S18 29.99F  
MARTHAS VNYRD MOSUNNY 74 61 63 S16 29.98F  

 
 
MAZALL-292000-  
CENTRAL AND WESTERN MASSACHUSETTS  
 
CITY SKY/WX TMP DP RH WIND PRES REMARKS
 
WORCESTER CLOUDY 69 62 78 S8 29.94F  
FITCHBURG CLOUDY 73 62 68 SW12G20 29.90F  
ORANGE RAIN 67 65 93 S8 29.91F FOG  
SPRINGFIELD CLOUDY 71 65 80 S9 29.88F  
WESTFIELD CLOUDY 71 68 90 S7 29.88F  
NORTH ADAMS CLOUDY 71 65 81 CALM 29.87F  
PITTSFIELD LGT RAIN 68 65 90 S8 29.88F FOG  

 
 
RIZALL-292000-  
RHODE ISLAND  
 
CITY SKY/WX TMP DP RH WIND PRES REMARKS
 
PROVIDENCE CLOUDY 74 59 59 S16 29.95F  
NEWPORT PTSUNNY 72 60 66 S16 29.96F  
BLOCK ISLAND PTSUNNY 74 61 63 S17 29.97F  
SMITHFIELD CLOUDY 69 58 67 S6 29.95F  
WESTERLY PTSUNNY 72 63 73 S13 29.96F  

 
 
CTZALL-292000-  
CONNECTICUT  
 
CITY SKY/WX TMP DP RH WIND PRES REMARKS
 
BRADLEY INTL CLOUDY 73 64 73 S15G22 29.89F  
HARTFORD CLOUDY 76 62 62 S13G22 29.90F  
BRIDGEPORT LGT RAIN 76 66 71 S12 29.91F  
DANBURY CLOUDY 75 64 68 S9 29.91F  
GROTON PTSUNNY 73 64 73 S15 29.94F  
NEW HAVEN CLOUDY 77 68 73 S15G23 29.92F  
CHESTER PTSUNNY 75 66 73 S13G21 29.94F  
MERIDEN CLOUDY 75 62 64 S15G25 29.91F  
WILLIMANTIC CLOUDY 73 62 68 S10 29.92F  
OXFORD CLOUDY 72 69 90 S12G18 29.93F  

 
 
MEZ002-015-021-024-NHZ003-005-008-011-012-014-VTZ005-008-292000-  
NORTHERN NEW ENGLAND  
 
CITY SKY/WX TMP DP RH WIND PRES REMARKS
 
PORTLAND ME LGT RAIN 65 64 97 S12G17 29.91S FOG  
BANGOR ME PTSUNNY 74 51 44 S15 29.89F  
CONCORD NH CLOUDY 76 60 57 S10 29.87F  
MANCHESTER NH CLOUDY 78 62 57 S16G23 29.85F  
NASHUA NH CLOUDY 74 68 81 VRB7G16 29.89F  
PORTSMOUTH NH CLOUDY 76 62 59 CALM 29.89F  
JAFFREY NH CLOUDY 72 63 73 SW12G18 29.91F  
KEENE NH LGT RAIN 72 65 78 S13G18 29.88F  
BURLINGTON VT CLOUDY 68 62 81 S7 29.85F  
MT. WASHINGTON LGT RAIN 48 45 87 SW18 N/A VSB 1/16  

 
 
NYZ052-076-292000-  
EASTERN NEW YORK  
 
CITY SKY/WX TMP DP RH WIND PRES REMARKS
 
ALBANY LGT RAIN 68 64 87 SE9 29.83F  
NEW YORK CITY CLOUDY 77 67 71 S22G30 29.89F  

 
 
ANZALL-292000-  
MARINE OBSERVATIONS  
 
STATION/POSITION TIME TEMP WIND PRES VSBY WAVE
 
AIR SEA DIR/SP/G HT/PER  
(UTC) (F) (DEG/KT/KT) (MB) (MI) (FT/S)  
BOSTON BUOY 1840 70 190/ 17/ 21 1013.4  
BUZZARDS BAY 1800 180/ 14/ 15 1016.2F  
NANTUCKET SOUND 1840 70 74 180/ 16/ 19 1015.4F  
MASS BAY-STELLWA 1804 71 68 180/ 16/ 19 1013.1F 1 7/8 2/ 3  
ISLE OF SHOALS 1800 69 160/ 24/ 26 1012.1F  
S OF BLOCK IS 1826 71 N/A 3/ 3  

 
   
.....................KEY......................
 
 
SKY/WX - SKY CONDITION/PRESENT WEATHER  
TMP - TEMPERATURE IN FAHRENHEIT  
DWPT - DEWPOINT IN FAHRENHEIT  
RH - RELATIVE HUMIDITY IN PERCENT  
WIND - DIRECTION AND SPEED IN MPH  
PRES - MEAN SEA LEVEL PRESSURE IN INCHES OF HG  
WCI - WIND CHILL INDEX  
VSB - VISIBILITY IN MILES  
HX - HEAT INDEX  
TC - TEMPERATURE IN CELSIUS  
VRB - VARIABLE WIND DIRECTION  
N/A - NOT AVAILABLE  
 
 
CLICK HERE TO GO TO PREVIOUS BULLETINS.

The Nexlab MA Page
The Nexlab RI Page
The Nexlab NH Page
The Nexlab CT Page Main Text Page